Tracking 27371 objects as of 7-Jun-2023
HD Live streaming from Space Station
objects crossing your sky now

BREEZE-M DEB (TANK)

Track BREEZE-M DEB (TANK) now!
10-day predictions


NORAD ID: 39524
Int'l Code: 2014-007C
Perigee: 316.3 km
Apogee: 21,374.1 km
Inclination: 49.3 °
Period: 374.7 minutes
Semi major axis: 17216 km
RCS: Unknown
Launch date: February 14, 2014
Source: Commonwealth of Independent States (former USSR) (CIS)
Launch site: TYURATAM MISSILE AND SPACE COMPLEX (TTMTR)

Note: This is SATELLITE DEBRIS
Your satellite tracking list
Your tracking list is empty




NASA's NSSDC Master Catalog

Two Line Element Set (TLE):
1 39524U 14007C   23157.44626936  .00004267  00000-0  13632-2 0  9999
2 39524  49.2560 203.2709 6115707  26.0356 354.9947  3.84324705128269
Source of the keplerian elements: AFSPC